Miscellaneous Local Product
Issued by NWS Hastings, NE

Home | Current Version | Previous Version | Text Only | Print | Product List | Glossary Off
Versions: 1 2 3 4 5 6 7 8 9 10 11 12 13 14 15 16 17 18 19 20 21 22 23 24 25 26 27 28 29 30 31 32 33 34 35 36 37 38 39 40 41 42 43 44 45 46 47 48 49 50

920
AXUS43 KGID 252202
MISGRI

GID CWA HOURLY WEATHER ROUNDUP
NATIONAL WEATHER SERVICE HASTINGS NE
500 PM CDT THU MAY 25 2017

NOTE: "FAIR" INDICATES FEW OR NO CLOUDS BELOW 12,000 FEET WITH NO
SIGNIFICANT WEATHER AND/OR OBSTRUCTIONS TO VISIBILITY.

...SOUTH CENTRAL NEBRASKA...

CITY           SKY/WX    TMP DP  RH WIND       PRES   REMARKS
GRAND ISLAND   SUNNY     74  53  48 S8G18     29.51F
HASTINGS       SUNNY     75  54  47 S12       29.51F
KEARNEY        SUNNY     75  52  43 S7G17     29.51S
ORD            SUNNY     73  50  44 VRB6      29.51S
YORK           SUNNY     75  50  41 SE10G17   29.52F
AURORA         SUNNY     74  51  44 S10G20    29.52F
LEXINGTON      CLOUDY    74  55  52 SE6       29.52R
HOLDREGE       SUNNY     75  50  41 S5        29.50S
HEBRON         SUNNY     79  53  40 S17G23    29.51S

...NEBRASKA PANHANDLE...

CITY           SKY/WX    TMP DP  RH WIND       PRES   REMARKS
CHADRON        MOSUNNY   70  45  40 N10G17    29.59R
ALLIANCE       LGT RAIN  60  51  72 W15G29    29.62R
SCOTTSBLUFF    LGT RAIN  69  47  45 W7        29.60F
SIDNEY         CLOUDY    70  50  49 N14G23    29.61R

...WESTERN AND NORTH CENTRAL NEBRASKA...

CITY           SKY/WX    TMP DP  RH WIND       PRES   REMARKS
VALENTINE      MOSUNNY   73  41  31 NE8       29.56R
AINSWORTH      SUNNY     70  53  53 NE6       29.55S
ONEILL         SUNNY     71  50  47 S5        29.54S
BROKEN BOW     CLOUDY    71  53  52 E5        29.54R
IMPERIAL       CLOUDY    64  56  75 NE5       29.56F
NORTH PLATTE   CLOUDY    75  56  51 NW6       29.57R
MCCOOK         SUNNY     79  53  40 NE8       29.51R

...EASTERN NEBRASKA...

CITY           SKY/WX    TMP DP  RH WIND       PRES   REMARKS
NORFOLK        PTSUNNY   74  49  41 S10       29.53R
SO SIOUX CITY  CLOUDY    70  53  54 S9        29.54R
TEKAMAH        MOSUNNY   73  53  49 SE16      29.54S
ALBION         SUNNY     76  51  41 S12       29.52S
OMAHA EPPLEY   MOSUNNY   76  51  41 SE14      29.55S
OFFUTT AFB     CLOUDY    76  52  42 SE16      29.54S
MILLARD        SUNNY     77  55  46 SE18      29.54F
LINCOLN        PTSUNNY   77  52  41 S16       29.53R
NEBRASKA CITY  MOSUNNY   74  46  36 S15       29.55S
BEATRICE       SUNNY     77  54  45 S14G22    29.53R
FALLS CITY     PTSUNNY   73  53  49 SE20G26   29.55S

...NORTHERN KANSAS...

CITY           SKY/WX    TMP DP  RH WIND       PRES   REMARKS
GOODLAND       CLOUDY    75  51  43 NE16      29.46F
HILL CITY      SUNNY     86  58  38 S13       29.46S
NORTON         CLEAR     79  52  38 E5        29.48R
PHILLIPSBURG   SUNNY     81  54  39 SE8       29.47S
SMITH CENTER   PTSUNNY   79  54  41 S12       29.48F
HAYS           SUNNY     80  58  46 S13       29.47S
RUSSELL        SUNNY     79  57  46 S17G26    29.46F
CONCORDIA      SUNNY     76  58  53 S16G24    29.50S
SALINA         SUNNY     81  56  42 S18G25    29.49F
TOPEKA         MOSUNNY   78  56  46 SE21G28   29.55F



USA.gov is the U.S. government's official web portal to all federal, state and local government web resources and services.